Location: Unspecified
(23.4022°S, 0.0000°E)
Time: 07:55:40
(UTC+00:00)

S-56A Canister/Altair - Visible Passes

Search period start: 04 April 2026 00:00
Search period end: 14 April 2026 00:00
Orbit: 632 x 2485 km, 38.9° (Epoch: 28 March)

Date Brightness Start Highest point End Pass type
(mag) Time Alt. Az. Time Alt. Az. Time Alt. Az.
4 Apr 11.0 01:48:38 15° E 01:48:38 15° E 01:50:13 10° E visible
4 Apr 8.8 03:45:56 73° NW 03:46:16 74° NW 03:58:25 10° NE visible
4 Apr 10.4 05:44:07 10° W 05:51:53 24° NW 06:01:40 10° N visible
4 Apr 7.5 18:47:07 10° NW 18:52:07 51° NE 18:54:48 22° ESE visible
4 Apr 10.3 20:51:59 10° W 20:52:05 10° WSW 20:52:05 10° WSW visible
5 Apr 9.3 03:13:32 56° NE 03:13:32 56° NE 03:22:27 10° NE visible
5 Apr 10.1 05:10:50 17° W 05:16:22 27° NW 05:26:29 10° NNE visible
5 Apr 8.0 18:12:13 10° NNW 18:17:22 39° NE 18:21:37 10° ESE visible
5 Apr 9.2 20:16:47 10° W 20:19:22 25° WSW 20:19:22 25° WSW visible
6 Apr 10.2 02:41:07 31° ENE 02:41:07 31° ENE 02:46:28 10° ENE visible
6 Apr 9.7 04:38:26 28° WNW 04:40:54 31° NW 04:51:11 10° NNE visible
6 Apr 8.2 19:41:32 10° W 19:46:03 38° SSW 19:46:36 36° S visible
7 Apr 10.9 02:08:41 16° ENE 02:08:41 16° ENE 02:10:28 10° ENE visible
7 Apr 9.6 04:05:59 35° NNW 04:05:59 35° NNW 04:15:45 10° NNE visible
7 Apr 8.0 19:06:15 10° WNW 19:11:16 48° SSW 19:13:48 23° SE visible
8 Apr 10.0 03:33:31 32° N 03:33:31 32° N 03:40:15 10° NNE visible
8 Apr 7.7 18:30:55 10° WNW 18:36:29 63° SSW 18:40:57 10° SE visible
8 Apr 10.2 20:37:57 10° SW 20:38:13 11° SW 20:38:13 11° SW visible
9 Apr 10.5 03:01:00 22° NNE 03:01:00 22° NNE 03:04:41 10° NNE visible
9 Apr 10.6 04:58:18 10° NW 05:00:29 11° NW 05:03:24 10° NNW visible
9 Apr 9.4 20:02:30 10° WSW 20:05:19 17° SSW 20:05:19 17° SSW visible
10 Apr 11.1 02:28:26 12° NE 02:28:26 12° NE 02:29:06 10° NE visible
10 Apr 10.6 04:25:43 13° NNW 04:25:43 13° NNW 04:29:34 10° NNW visible
10 Apr 9.1 19:26:56 10° WSW 19:30:42 21° SSW 19:32:23 17° S visible
11 Apr 10.8 03:53:05 13° NNW 03:53:05 13° NNW 03:55:05 10° N visible
11 Apr 9.1 18:51:18 10° W 18:55:47 25° SSW 18:59:25 11° SSE visible
12 Apr 9.0 18:15:36 10° W 18:20:54 31° SSW 18:25:09 10° SE visible
13 Apr 9.6 19:48:26 10° SW 19:50:38 13° S 19:50:39 13° S visible
